This is the latest recevied weather packets stored in our database for station/object DB0FN-10. If no packets are shown the sender has not sent any weather packets the latest 10 day(s).
| Time | Temp. | Humidity | Pressure | Rain* | Wind** | Luminosity | Snow |
|---|---|---|---|---|---|---|---|
| 1787662019 | 24.44° C | 67% | 1018.8 hPa | - | - | - | - |
| 1787661119 | 24.44° C | 66% | 1018.7 hPa | - | - | - | - |
| 1787660219 | 24.44° C | 73% | 1018.6 hPa | - | - | - | - |
| 1787659319 | 23.33° C | 69% | 1018.8 hPa | - | - | - | - |
| 1787658419 | 23.89° C | 70% | 1018.9 hPa | - | - | - | - |
| 1787656619 | 22.78° C | 73% | 1018.9 hPa | - | - | - | - |
| 1787655718 | 23.33° C | 70% | 1019 hPa | - | - | - | - |
| 1787654818 | 23.33° C | 69% | 1018.9 hPa | - | - | - | - |
| 1787653918 | 22.78° C | 71% | 1019 hPa | - | - | - | - |
| 1787653018 | 22.22° C | 71% | 1018.9 hPa | - | - | - | - |
| 1787652118 | 22.22° C | 71% | 1018.9 hPa | - | - | - | - |
| 1787651224 | 22.22° C | 67% | 1018.9 hPa | - | - | - | - |
| 1787650318 | 21.67° C | 68% | 1018.8 hPa | - | - | - | - |
| 1787649418 | 21.67° C | 67% | 1018.8 hPa | - | - | - | - |
| 1787648518 | 22.22° C | 65% | 1018.7 hPa | - | - | - | - |
| 1787647618 | 21.67° C | 65% | 1018.5 hPa | - | - | - | - |
| 1787646718 | 21.67° C | 64% | 1018.5 hPa | - | - | - | - |
| 1787645818 | 21.67° C | 65% | 1018.4 hPa | - | - | - | - |
| 1787644918 | 21.67° C | 65% | 1018.3 hPa | - | - | - | - |
| 1787644018 | 21.11° C | 66% | 1018.1 hPa | - | - | - | - |
| 1787643117 | 21.11° C | 65% | 1018 hPa | - | - | - | - |
| 1787642217 | 20.56° C | 65% | 1017.8 hPa | - | - | - | - |
| 1787641317 | 20.56° C | 64% | 1017.7 hPa | - | - | - | - |
| 1787640417 | 21.11° C | 62% | 1017.6 hPa | - | - | - | - |
| 1787639517 | 20.56° C | 61% | 1017.5 hPa | - | - | - | - |
* Rain since midnight (hover to see other rain measurements)
** Current wind speed in m/s (hover to see current wind gust speed)